Location: Newark
(25.0000°N, 73.5000°E)
Time: 00:36:45
(UTC+00:00)

STARLINK-2717 - Pass Details

Date: 16 June 2021
Orbit: 546 x 548 km, 53.1° (Epoch: 03 August)

Event Time Altitude Azimuth Distance (km) Brightness Sun altitude
Exits shadow 21:59:18 - 128° (SE) 2,181 6.7 -26.1°
Enters shadow 22:59:55 -70° 226° (SW) 12,536 10.4 -15.7°
Maximum altitude 23:38:59 89° 310° (NW) 548 3.6 -8.3°
